[[{"header":{"parameterUnit":"m.s-1","parameterCategory":1,"la1":30.2991,"la2":30.254,"lo1":-89.0895,"lo2":-89.0444,"dy":0.0017,"dx":0.0017,"nx":28,"ny":28,"refTime":"2023-10-13T03:00:00:Z","depth":0,"parameterNumber":2,"parameterNumberName":"U-component_of_WINDS"},"data":[0,0,0,0,0,0,0,0,0,0,0,0,0,0,0,0,0,0,0,0,0,0,0,0,0,0,0,0,0,0,0,0,0,0,0,0,0,0,0,0,0,0,0,0,0,0,0,0,0,0,0,0,0,0,0,0,0,0,-1.8915,-1.8915,0,-1.8902,-1.8902,-1.8902,-1.8835,-1.8834,-1.8832,-1.8831,-1.882,-1.8821,-1.8822,0,0,0,0,0,0,0,0,0,0,0,0,0,-1.8885,-1.8886,-1.8915,-1.8915,-1.8915,-1.8902,-1.8902,-1.8901,-1.8836,-1.8834,-1.8832,-1.883,-1.8819,-1.8821,-1.8822,0,0,0,0,0,0,0,0,0,0,0,0,0,-1.8888,-1.8886,-1.8915,-1.888,-1.8877,-1.8902,-1.8902,-1.8901,-1.8836,-1.8834,-1.8831,-1.8829,-1.8819,-1.882,-1.8822,-1.888,0,0,-1.8827,-1.8828,0,0,0,0,0,0,0,0,-1.8888,-1.8889,-1.8886,-1.8883,-1.8879,-1.8868,-1.8887,-1.8894,-1.8837,-1.8852,-1.8831,-1.8828,-1.8838,-1.8838,-1.884,-1.888,-1.8879,-1.8828,-1.8829,-1.8829,-1.883,0,0,0,0,0,0,0,-1.8888,-1.8889,-1.891,-1.8886,-1.8882,-1.8866,-1.8864,-1.8888,-1.8858,-1.885,-1.8845,-1.8845,-1.8835,-1.8839,-1.884,-1.8879,-1.8828,-1.8829,-1.883,-1.8831,-1.8965,-1.8967,0,0,0,0,0,0,-1.8892,-1.8889,-1.891,-1.8909,-1.8878,-1.8868,-1.8866,-1.8874,-1.8858,-1.8853,-1.8847,-1.8842,-1.8837,-1.8838,-1.8839,-1.8906,-1.8829,-1.8831,-1.8832,-1.8962,-1.8965,-1.8968,0,0,0,0,0,0,-1.8892,-1.8895,-1.8911,-1.8898,-1.8899,-1.8871,-1.8881,-1.8875,-1.8878,-1.8855,-1.8849,-1.8856,-1.8835,-1.8837,-1.887,-1.8905,-1.8832,-1.8833,-1.8959,-1.8963,-1.8967,-1.904,0,0,0,0,0,0,-1.8891,-1.8895,-1.8916,-1.8899,-1.89,-1.8942,-1.8883,-1.8876,-1.8881,-1.8874,-1.8862,-1.8858,-1.8834,-1.8868,-1.8872,-1.8906,-1.8835,-1.8956,-1.8961,-1.8965,-1.9035,-1.9046,-1.9056,0,0,0,0,0,-1.889,-1.8938,-1.8918,-1.8921,-1.8926,-1.8944,-1.8945,-1.8915,-1.8884,-1.8906,-1.8891,-1.8858,-1.89,-1.8872,-1.8876,-1.8911,-1.8954,-1.896,-1.8965,-1.903,-1.9044,-1.9056,0,0,0,0,0,0,-1.8961,-1.8935,-1.8912,-1.8956,-1.8953,-1.8933,-1.8959,-1.8931,-1.8937,-1.8931,-1.8895,-1.8892,-1.8931,-1.8924,-1.8893,-1.8966,-1.8921,-1.8928,-1.8969,-1.8982,-1.8993,-1.8994,-1.8836,0,0,0,0,0,-1.8982,-1.8998,-1.8974,-1.9015,-1.9015,-1.8987,-1.8994,-1.8972,-1.8967,-1.8966,-1.8953,-1.8951,-1.8963,-1.8972,-1.8982,-1.9033,-1.903,-1.9059,-1.907,-1.9078,-1.9085,-1.9111,-1.9124,-1.8987,-1.8987,-1.8986,0,0,-1.9025,-1.9012,-1.9025,-1.9029,-1.9024,-1.9042,-1.8987,-1.9008,-1.9022,-1.8969,-1.9,-1.8991,-1.8985,-1.9028,-1.9046,-1.9023,-1.9122,-1.9086,-1.9093,-1.9094,-1.9118,-1.9132,-1.9143,-1.899,-1.899,-1.8989,0,0,-1.9112,-1.9104,-1.9137,-1.9133,-1.9125,-1.9107,-1.9115,-1.9099,-1.9091,-1.9121,-1.9082,-1.9097,-1.9119,-1.9117,-1.9119,-1.9205,-1.9175,-1.9209,-1.9265,-1.9291,-1.9302,-1.9312,-1.9343,-1.9354,-1.9216,-1.9216,-1.9216,0,-1.9167,-1.9192,-1.9158,-1.9182,-1.9185,-1.9137,-1.9171,-1.9168,-1.9165,-1.9169,-1.9143,-1.9169,-1.9163,-1.9204,-1.9225,-1.9228,-1.9236,-1.9211,-1.9303,-1.9312,-1.9321,-1.935,-1.9362,-1.922,-1.922,-1.9219,-1.9219,0,-1.926,-1.9278,-1.9305,-1.9302,-1.9308,-1.9337,-1.9308,-1.9318,-1.9295,-1.928,-1.9311,-1.9301,-1.9308,-1.9316,-1.9294,-1.9354,-1.934,-1.931,-1.9264,-1.9339,-1.9366,-1.9377,-1.9226,-1.9225,-1.9223,-1.9222,0,0,-1.9393,-1.937,-1.9381,-1.9378,-1.9366,-1.938,-1.9406,-1.9412,-1.9422,-1.9421,-1.9443,-1.9462,-1.9434,-1.9436,-1.9413,-1.9436,-1.9505,-1.9402,-1.9401,-1.9422,-1.9571,-1.9595,-1.9609,-1.9485,-1.9487,-1.9488,-1.9572,0,-1.9477,-1.952,-1.949,-1.9539,-1.9555,-1.951,-1.9533,-1.9528,-1.9514,-1.9526,-1.9511,-1.9525,-1.9486,-1.9487,-1.9507,-1.9492,-1.9535,-1.9486,-1.9506,-1.9507,-1.9509,-1.9623,-1.9648,-1.9728,-1.9582,-1.9584,-1.9585,0,-1.9581,-1.9584,-1.9634,-1.9618,-1.9624,-1.9645,-1.9648,-1.966,-1.9654,-1.9642,-1.9644,-1.9615,-1.964,-1.9595,-1.963,-1.9597,-1.9603,-1.9597,-1.96,-1.9601,-1.9551,-1.9628,-1.9752,-1.9765,-1.9601,-1.96,-1.9599,0,-1.9674,-1.969,-1.9722,-1.9722,-1.9703,-1.972,-1.9713,-1.9704,-1.971,-1.9712,-1.9716,-1.9722,-1.9726,-1.9731,-1.9705,-1.9674,-1.9744,-1.9696,-1.9735,-1.9736,-1.9753,-1.9752,-1.9881,-1.9756,-1.9755,-1.9755,-1.9755,0,-1.9772,-1.9805,-1.9763,-1.9783,-1.9819,-1.9784,-1.982,-1.9808,-1.9801,-1.9818,-1.9779,-1.9796,-1.976,-1.9773,-1.9753,-1.9785,-1.9787,-1.9779,-1.9773,-1.9783,-1.9784,-1.9787,-1.9781,-1.9758,-1.9758,-1.9757,-1.9756,0,-1.9882,-1.9856,-1.9888,-1.9867,-1.9863,-1.989,-1.9873,-1.9891,-1.9873,-1.9896,-1.9899,-1.9872,-1.9886,-1.986,-1.9871,-1.9857,-1.9902,-1.9888,-1.9905,-1.99,-1.9941,-1.9938,-2.0077,-2.0094,-1.9957,-1.9959,-1.996,0,-1.9947,-1.9971,-1.9952,-1.9961,-1.9956,-1.997,-1.9975,-1.9941,-1.9948,-1.9942,-1.9961,-1.9972,-1.9978,-2.0003,-1.9985,-1.9993,-1.9979,-2.0026,-1.998,-1.9989,-1.998,-1.9979,-1.9982,-2.0037,-2.0038,-2.004,-2.0041,0,-2.0065,-2.005,-2.0058,-2.0062,-2.0069,-2.0071,-2.007,-2.0079,-2.0043,-2.0053,-2.0066,-2.0072,-2.0082,-2.0093,-2.0097,-2.009,-2.006,-2.0055,-2.0065,-2.0076,-2.0085,-2.0081,-1.9932,-2.0053,-2.0052,-2.0051,-2.005,-2.005,-2.0154,-2.0173,-2.0163,-2.0174,-2.0169,-2.0169,-2.0184,-2.0169,-2.0179,-2.0184,-2.0163,-2.0182,-2.0174,-2.0176,-2.0173,-2.0187,-2.0165,-2.0179,-2.0183,-2.0187,-2.0194,-2.0082,-2.0187,-2.0187,-2.0186,-2.0186,-2.0186,0,-2.0271,-2.0261,-2.0271,-2.027,-2.0279,-2.0248,-2.0245,-2.0255,-2.0271,-2.0266,-2.0273,-2.0288,-2.0298,-2.0281,-2.0288,-2.0303,-2.029,-2.0306,-2.0305,-2.0305,-2.0212,-2.0203,-2.0317,-2.0317,-2.0317,-2.0317,-2.0317,-2.0317,-2.0332,-2.0363,-2.0347,-2.0375,-2.0365,-2.0382,-2.0383,-2.0383,-2.0378,-2.0397,-2.0405,-2.0393,-2.0383,-2.039,-2.0398,-2.0392,-2.0398,-2.042,-2.041,-2.0324,-2.0311,-2.0299,-2.029,-2.0421,-2.0421,-2.0501,-2.0502,-2.0502]},{"header":{"parameterUnit":"m.s-1","parameterCategory":1,"la1":30.2991,"la2":30.254,"lo1":-89.0895,"lo2":-89.0444,"dy":0.0017,"dx":0.0017,"nx":28,"ny":28,"refTime":"2023-10-13T03:00:00:Z","depth":0,"parameterNumber":3,"parameterNumberName":"V-component_of_WINDS"},"data":[0,0,0,0,0,0,0,0,0,0,0,0,0,0,0,0,0,0,0,0,0,0,0,0,0,0,0,0,0,0,0,0,0,0,0,0,0,0,0,0,0,0,0,0,0,0,0,0,0,0,0,0,0,0,0,0,0,0,-3.824,-3.8241,0,-3.8337,-3.8338,-3.8339,-3.8291,-3.8288,-3.8286,-3.8284,-3.838,-3.8384,-3.8389,0,0,0,0,0,0,0,0,0,0,0,0,0,-3.8011,-3.8015,-3.824,-3.8241,-3.8242,-3.8336,-3.8338,-3.8339,-3.8291,-3.8288,-3.8285,-3.8282,-3.8378,-3.8384,-3.839,0,0,0,0,0,0,0,0,0,0,0,0,0,-3.8109,-3.8017,-3.8239,-3.823,-3.823,-3.8336,-3.8338,-3.8339,-3.8292,-3.8288,-3.8285,-3.8281,-3.8376,-3.8383,-3.8391,-3.8511,0,0,-3.8413,-3.8416,0,0,0,0,0,0,0,0,-3.8104,-3.8118,-3.823,-3.8231,-3.8231,-3.8298,-3.8292,-3.8397,-3.8293,-3.8268,-3.8284,-3.8279,-3.8355,-3.8364,-3.839,-3.8515,-3.852,-3.8414,-3.8418,-3.8421,-3.8423,0,0,0,0,0,0,0,-3.8097,-3.8113,-3.8278,-3.8232,-3.8232,-3.822,-3.823,-3.8312,-3.8332,-3.827,-3.8267,-3.8279,-3.8355,-3.8383,-3.8392,-3.8521,-3.8413,-3.842,-3.8424,-3.8427,-3.875,-3.8754,0,0,0,0,0,0,-3.8091,-3.8108,-3.8275,-3.8281,-3.8157,-3.8227,-3.8238,-3.828,-3.8331,-3.8335,-3.8282,-3.8277,-3.8373,-3.8384,-3.8396,-3.8541,-3.8421,-3.8428,-3.8432,-3.8746,-3.8751,-3.8756,0,0,0,0,0,0,-3.8086,-3.8106,-3.8271,-3.8194,-3.8214,-3.8235,-3.8283,-3.8284,-3.8313,-3.834,-3.8343,-3.8308,-3.837,-3.8385,-3.8483,-3.8543,-3.8431,-3.8438,-3.8741,-3.8748,-3.8754,-3.8831,0,0,0,0,0,0,-3.808,-3.8105,-3.8151,-3.8195,-3.8218,-3.8358,-3.8286,-3.8289,-3.8326,-3.8319,-3.8365,-3.8369,-3.8368,-3.8472,-3.849,-3.8551,-3.8444,-3.8736,-3.8744,-3.8752,-3.8823,-3.8839,-3.8853,0,0,0,0,0,-3.8072,-3.8168,-3.8154,-3.8174,-3.8277,-3.8361,-3.8374,-3.8373,-3.8331,-3.8377,-3.8395,-3.8367,-3.8534,-3.8483,-3.8503,-3.8567,-3.8732,-3.8742,-3.8751,-3.8817,-3.8836,-3.8853,0,0,0,0,0,0,-3.813,-3.8174,-3.8158,-3.8272,-3.8314,-3.8353,-3.8412,-3.8393,-3.8447,-3.8438,-3.8433,-3.8444,-3.8546,-3.8566,-3.8508,-3.8686,-3.8626,-3.864,-3.8669,-3.8688,-3.8703,-3.8696,-3.845,0,0,0,0,0,-3.8156,-3.8222,-3.8256,-3.8353,-3.8375,-3.839,-3.8427,-3.8422,-3.8465,-3.8481,-3.8506,-3.8547,-3.8609,-3.865,-3.8708,-3.8826,-3.8835,-3.888,-3.8895,-3.8907,-3.8919,-3.8984,-3.9004,-3.8787,-3.8787,-3.8787,0,0,-3.821,-3.8243,-3.8284,-3.8366,-3.8397,-3.8465,-3.8405,-3.8479,-3.8529,-3.8492,-3.8587,-3.8607,-3.8652,-3.8761,-3.881,-3.8781,-3.8981,-3.8919,-3.8928,-3.8934,-3.8995,-3.9016,-3.9034,-3.8793,-3.8792,-3.8791,0,0,-3.8344,-3.8375,-3.846,-3.8493,-3.8543,-3.8552,-3.8572,-3.8615,-3.8628,-3.8723,-3.8697,-3.8756,-3.8862,-3.8896,-3.8927,-3.9075,-3.9052,-3.9094,-3.9172,-3.9235,-3.9252,-3.9267,-3.9321,-3.934,-3.9106,-3.9106,-3.9106,0,-3.8405,-3.8508,-3.8505,-3.8583,-3.8619,-3.859,-3.8676,-3.8708,-3.8773,-3.8799,-3.8765,-3.8899,-3.8928,-3.9045,-3.9081,-3.9107,-3.913,-3.9089,-3.925,-3.9265,-3.9279,-3.933,-3.935,-3.9111,-3.9111,-3.911,-3.911,0,-3.8581,-3.8652,-3.8714,-3.878,-3.8824,-3.8904,-3.8914,-3.8958,-3.895,-3.8963,-3.9061,-3.9094,-3.9159,-3.9186,-3.9179,-3.9303,-3.9283,-3.925,-3.919,-3.9305,-3.9353,-3.9372,-3.9118,-3.9116,-3.9115,-3.9114,0,0,-3.8753,-3.8818,-3.8841,-3.887,-3.8923,-3.8978,-3.9057,-3.9122,-3.9161,-3.9206,-3.9273,-3.9364,-3.9335,-3.937,-3.9366,-3.9421,-3.9538,-3.9381,-3.9382,-3.941,-3.9677,-3.9702,-3.9725,-3.9523,-3.9526,-3.9529,-3.9674,0,-3.8891,-3.9032,-3.9033,-3.9162,-3.9228,-3.9202,-3.9271,-3.9311,-3.9326,-3.9383,-3.9398,-3.9463,-3.9419,-3.944,-3.9494,-3.9512,-3.9591,-3.9502,-3.9584,-3.9587,-3.9574,-3.975,-3.9776,-3.9911,-3.9692,-3.9696,-3.9698,0,-3.9071,-3.9125,-3.9261,-3.9305,-3.9333,-3.9396,-3.9456,-3.9511,-3.9555,-3.9562,-3.9603,-3.959,-3.9671,-3.9609,-3.972,-3.9659,-3.9693,-3.9707,-3.9712,-3.972,-3.965,-3.9763,-3.9954,-3.9974,-3.9727,-3.9725,-3.9723,0,-3.9184,-3.929,-3.9386,-3.9412,-3.9466,-3.9511,-3.9535,-3.9576,-3.9615,-3.9667,-3.9693,-3.9753,-3.9786,-3.9833,-3.9837,-3.9792,-3.995,-3.9887,-3.9957,-3.9958,-3.9992,-3.999,-4.0191,-4.0013,-4.0013,-4.0012,-4.0012,0,-3.9338,-3.9423,-3.9438,-3.9496,-3.959,-3.9591,-3.9683,-3.9704,-3.974,-3.9802,-3.9783,-3.9841,-3.9844,-3.9903,-3.9907,-3.9999,-4.0014,-4.0021,-4.0021,-4.0023,-4.0023,-4.0046,-4.0036,-4.0018,-4.0017,-4.0016,-4.0015,0,-3.948,-3.9493,-3.9596,-3.9639,-3.9652,-3.972,-3.9756,-3.9812,-3.9825,-3.9904,-3.9922,-3.9943,-4.0012,-4.0021,-4.0102,-4.0104,-4.0215,-4.0205,-4.0201,-4.02,-4.0269,-4.0263,-4.0493,-4.0524,-4.0325,-4.0327,-4.0329,0,-3.9578,-3.9643,-3.9693,-3.9734,-3.9762,-3.9827,-3.9868,-3.9871,-3.9913,-3.997,-4.0019,-4.0087,-4.0141,-4.0253,-4.0275,-4.0337,-4.0328,-4.0405,-4.0337,-4.0338,-4.033,-4.0327,-4.0333,-4.0418,-4.042,-4.0422,-4.0423,0,-3.975,-3.9754,-3.9814,-3.9877,-3.9926,-3.9975,-4.0022,-4.0056,-4.0064,-4.0114,-4.0185,-4.0228,-4.0311,-4.0379,-4.044,-4.0464,-4.0446,-4.0444,-4.0464,-4.0467,-4.0462,-4.0466,-4.0237,-4.0439,-4.0437,-4.0436,-4.0435,-4.0435,-3.9873,-3.993,-3.9975,-4.0043,-4.0079,-4.0123,-4.0178,-4.0199,-4.0259,-4.0328,-4.0325,-4.0404,-4.0448,-4.0529,-4.0557,-4.0619,-4.0593,-4.0622,-4.0629,-4.0636,-4.0643,-4.0452,-4.063,-4.0629,-4.0629,-4.0628,-4.0628,0,-4.0045,-4.0073,-4.0136,-4.0202,-4.0256,-4.0235,-4.0285,-4.0331,-4.0401,-4.0444,-4.0498,-4.0581,-4.0647,-4.0674,-4.0739,-4.0783,-4.0776,-4.08,-4.0796,-4.0803,-4.0662,-4.0639,-4.0804,-4.0804,-4.0804,-4.0804,-4.0804,-4.0804,-4.0141,-4.0236,-4.0246,-4.0359,-4.0386,-4.0464,-4.0495,-4.0536,-4.057,-4.0664,-4.0719,-4.0737,-4.0774,-4.0841,-4.09,-4.0907,-4.0931,-4.0959,-4.0962,-4.083,-4.0812,-4.0795,-4.0774,-4.0965,-4.0965,-4.1098,-4.1099,-4.11]}]]